User: anonymous   Login
Location: Libas
(9.8833°N, 125.9833°E)
Time: 14:01:26
(UTC+00:00)
Language:

SEDSat Delta rocket - Orbit

View from above orbital plane
View from above orbital plane
View from above satellite
View from above satellite

Ground track
Ground track

The orbit data is extracted from the following two-line orbital elements,

1 25510U 98061C   21016.80743291  .00000287  00000-0  37955-4 0  9991
2 25510  31.4331 186.8127 0326942 178.2905 201.7144 14.37551665166398
Epoch (UTC): 16 January 2021 19:22:42
Eccentricity: 0.0326942
inclination: 31.4331°
perigee height: 533 km
apogee height: 1000 km
right ascension of ascending node: 186.8127°
argument of perigee: 178.2905°
revolutions per day: 14.37551665
mean anomaly at epoch: 201.7144°
orbit number at epoch: 16639

The dashed part of the orbit path shows where the satellite is in the earth's shadow,  

DLR